Terug naar catalogus

IRIDIUM 33 DEB

ActiefPO
NORAD 34690·DEBRIS·🇺🇸 United States

Gelanceerd Sep 14, 1997 vanaf Baikonur Cosmodrome

Loading…

Volgende Passages (komende 24 uur)

TLE

VersSource: Space-Track

Epoch: Sep 14, 2026, 12:12 UTC

1 34690U 97051KM  26257.50833698  .00002332  00000-0  52064-3 0  9998
2 34690  86.3716 277.0196 0010334 149.0294   3.9225 14.56407148921066

Volg IRIDIUM 33 DEB in realtime met AllMySat

Download on the App Store